KMADALTO1 Weather Reports


time (UTC)temp
C
wind
direction
speed
KPH
gust
KPH
rain 1hr
cm
rain 24hr
cm
rain mn
cm
humidity
%
barometer
mb
20260510180056 17 281 9.7 20.9 0.00 0.58 0.00 63 1012.4
20260510175551 17 332 1.6 20.9 0.00 0.69 0.00 63 1012.4
20260510175051 17 269 6.4 20.9 0.00 0.69 0.00 63 1012.3
20260510174557 17 257 8.0 20.9 0.00 0.69 0.00 62 1012.3
20260510174052 17 329 4.8 16.1 0.00 0.69 0.00 63 1012.1
20260510173551 17 350 4.8 19.3 0.00 0.69 0.00 64 1012.1
20260510173050 17 0 6.4 19.3 0.00 0.69 0.00 64 1012.3
20260510172551 17 355 8.0 19.3 0.00 0.69 0.00 63 1012.1
20260510172051 17 302 8.0 20.9 0.00 0.69 0.00 64 1012.0
20260510171605 17 273 8.0 20.9 0.00 0.69 0.00 62 1012.1
20260510171050 17 259 4.8 16.1 0.00 0.69 0.00 63 1011.9
20260510170552 17 229 3.2 24.1 0.00 0.69 0.00 65 1011.9
20260510170056 17 234 6.4 24.1 0.00 0.69 0.00 63 1012.0
20260510165552 17 238 8.0 22.5 0.00 0.81 0.00 63 1012.0
20260510165051 17 263 11.3 22.5 0.00 0.81 0.00 62 1012.1
20260510164552 17 201 4.8 19.3 0.00 0.81 0.00 64 1012.1
20260510164051 17 266 6.4 22.5 0.00 0.81 0.00 63 1012.3
20260510163554 17 298 6.4 22.5 0.00 0.81 0.00 63 1012.4
20260510163057 17 198 8.0 20.9 0.00 0.81 0.00 63 1012.4
20260510162552 17 202 6.4 19.3 0.00 0.81 0.00 63 1012.2
20260510162051 17 256 6.4 19.3 0.00 0.81 0.00 63 1012.3
20260510161554 17 0 6.4 19.3 0.00 0.81 0.00 64 1012.4
20260510161051 17 236 6.4 20.9 0.00 0.81 0.00 64 1012.3
20260510160552 16 234 3.2 20.9 0.00 0.81 0.00 64 1012.4
20260510160054 16 186 9.7 20.9 0.00 0.81 0.00 64 1012.3
20260510155549 16 285 4.8 12.9 0.00 0.94 0.00 64 1012.5
20260510155050 16 261 3.2 12.9 0.00 0.94 0.00 64 1012.5
20260510154552 16 263 4.8 16.1 0.00 0.94 0.00 64 1012.4
20260510154049 16 0 6.4 16.1 0.00 0.94 0.00 64 1012.4
20260510153548 16 202 6.4 12.9 0.00 0.94 0.00 64 1012.6
20260510153057 16 240 4.8 11.3 0.00 0.94 0.00 63 1012.5
20260510152549 16 245 6.4 14.5 0.00 0.94 0.00 63 1012.5
20260510152048 15 145 6.4 14.5 0.00 0.94 0.00 62 1012.4
20260510151553 15 237 6.4 12.9 0.00 0.94 0.00 63 1012.4
20260510151049 15 284 3.2 12.9 0.00 0.94 0.00 62 1012.3
20260510150549 15 256 4.8 14.5 0.00 0.94 0.00 62 1012.3
20260510150057 15 265 3.2 14.5 0.00 0.94 0.00 61 1012.4
20260510145549 15 277 6.4 17.7 0.00 1.09 0.00 61 1012.2
20260510145049 15 298 6.4 20.9 0.00 1.09 0.00 61 1012.3
20260510144610 15 312 9.7 20.9 0.00 1.09 0.00 60 1012.2
20260510144050 15 304 8.0 17.7 0.00 1.09 0.00 59 1012.1
20260510143550 14 301 6.4 16.1 0.00 1.09 0.00 58 1012.2
20260510143108 14 267 8.0 17.7 0.00 1.09 0.00 58 1012.4
20260510142549 14 270 9.7 17.7 0.00 1.09 0.00 57 1012.1
20260510142053 13 288 3.2 12.9 0.00 1.09 0.00 54 1012.1
20260510141603 13 316 4.8 14.5 0.00 1.09 0.00 50 1012.1
20260510141048 13 309 4.8 14.5 0.00 1.09 0.00 46 1012.2
20260510140549 12 274 1.6 12.9 0.00 1.09 0.00 41 1012.3
20260510140056 12 271 4.8 14.5 0.00 1.09 0.00 38 1012.3
20260510135549 12 263 4.8 14.5 0.00 1.12 0.00 33 1012.4
20260510135049 11 292 1.6 12.9 0.00 1.12 0.00 26 1012.3
20260510134612 11 253 6.4 12.9 0.00 1.12 0.00 24 1012.3
20260510134049 11 246 3.2 9.7 0.00 1.12 0.00 21 1012.4
20260510133549 11 0 0.0 12.9 0.00 1.12 0.00 18 1012.3
20260510133055 11 267 3.2 12.9 0.00 1.12 0.00 16 1012.4
20260510132549 11 268 4.8 12.9 0.00 1.12 0.00 16 1012.4
20260510132050 10 275 0.0 6.4 0.00 1.12 0.00 15 1012.3
20260510131550 10 277 0.0 11.3 0.00 1.12 0.00 15 1012.3
20260510131049 10 0 3.2 11.3 0.00 1.12 0.00 15 1012.4
20260510130549 10 298 1.6 8.0 0.00 1.12 0.00 14 1012.4
20260510130050 10 0 0.0 8.0 0.00 1.12 0.00 14 1012.3
20260510125548 10 0 0.0 0.0 0.00 1.17 0.00 15 1012.3
20260510125051 9 0 0.0 0.0 0.00 1.17 0.00 15 1012.2
20260510124602 9 0 0.0 0.0 0.00 1.17 0.00 15 1012.2
20260510124051 9 0 0.0 0.0 0.00 1.17 0.00 15 1012.2
20260510123551 9 0 0.0 0.0 0.00 1.17 0.00 15 1012.1
20260510123057 9 0 0.0 0.0 0.00 1.17 0.00 16 1012.2
20260510122550 8 0 0.0 0.0 0.00 1.17 0.00 16 1012.1
20260510122051 8 0 0.0 0.0 0.00 1.17 0.00 16 1012.0
20260510121553 8 0 0.0 0.0 0.00 1.17 0.00 16 1012.0
20260510121054 8 0 0.0 0.0 0.00 1.17 0.00 16 1011.9
20260510120551 8 0 0.0 0.0 0.00 1.17 0.00 16 1012.0
20260510120058 8 0 0.0 0.0 0.00 1.17 0.00 16 1012.0
20260510115551 8 0 0.0 0.0 0.00 1.24 0.00 16 1012.0
20260510115051 8 0 0.0 0.0 0.00 1.24 0.00 16 1012.1
20260510114557 8 0 0.0 0.0 0.00 1.24 0.00 16 1012.1
20260510114052 8 0 0.0 0.0 0.00 1.24 0.00 17 1012.1
20260510113551 8 0 0.0 0.0 0.00 1.24 0.00 17 1012.3
20260510113101 8 0 0.0 0.0 0.00 1.24 0.00 17 1012.2
20260510112551 8 0 0.0 0.0 0.00 1.24 0.00 17 1012.2
20260510112051 8 0 0.0 0.0 0.00 1.24 0.00 17 1012.3
20260510111604 8 0 0.0 0.0 0.00 1.24 0.00 17 1012.1
20260510111050 8 0 0.0 0.0 0.00 1.24 0.00 17 1012.1
20260510110555 8 0 0.0 0.0 0.00 1.24 0.00 17 1012.0
20260510110054 8 0 0.0 0.0 0.00 1.24 0.00 17 1012.0
20260510105551 8 0 0.0 0.0 0.00 1.42 0.00 17 1011.9
20260510105052 7 0 0.0 0.0 0.00 1.42 0.00 18 1011.8
20260510104612 7 0 0.0 0.0 0.00 1.42 0.00 18 1011.8
20260510104054 7 0 0.0 0.0 0.00 1.42 0.00 18 1011.6
20260510103555 7 0 0.0 0.0 0.00 1.42 0.00 18 1011.6
20260510103053 7 0 0.0 0.0 0.00 1.42 0.00 18 1011.4
20260510102551 7 0 0.0 0.0 0.00 1.42 0.00 18 1011.4
20260510102051 7 0 0.0 0.0 0.00 1.42 0.00 18 1011.3
20260510101553 7 0 0.0 0.0 0.00 1.42 0.00 18 1011.1
20260510101054 7 0 0.0 0.0 0.00 1.42 0.00 18 1011.2
20260510100555 7 0 0.0 0.0 0.00 1.42 0.00 18 1011.1
20260510100059 7 0 0.0 0.0 0.00 1.42 0.00 18 1011.1
20260510095553 7 0 0.0 0.0 0.00 1.55 0.00 18 1011.2
20260510095050 7 0 0.0 0.0 0.00 1.55 0.00 18 1011.1
20260510094552 7 0 0.0 0.0 0.00 1.55 0.00 18 1011.0
20260510094051 7 0 0.0 0.0 0.00 1.55 0.00 19 1010.7
20260510093555 7 0 0.0 0.0 0.00 1.55 0.00 19 1010.6
20260510093057 7 0 0.0 0.0 0.00 1.55 0.00 19 1010.7
20260510092551 7 0 0.0 0.0 0.00 1.55 0.00 19 1010.7
20260510092054 7 0 0.0 0.0 0.00 1.55 0.00 19 1010.6
20260510091554 7 0 0.0 0.0 0.00 1.55 0.00 19 1010.6
20260510091050 7 0 0.0 0.0 0.00 1.55 0.00 19 1010.4
20260510090551 7 0 0.0 0.0 0.00 1.55 0.00 19 1010.3
20260510090110 7 0 0.0 0.0 0.00 1.55 0.00 19 1010.1
20260510085554 7 0 0.0 0.0 0.00 1.57 0.00 19 1010.3
20260510085051 7 0 0.0 0.0 0.00 1.57 0.00 19 1010.4
20260510084553 7 0 0.0 0.0 0.00 1.57 0.00 19 1010.3
20260510084051 7 0 0.0 0.0 0.00 1.57 0.00 19 1010.6
20260510083551 7 0 0.0 0.0 0.00 1.57 0.00 19 1010.5
20260510083051 7 0 0.0 0.0 0.00 1.57 0.00 19 1010.5
20260510082555 7 0 0.0 0.0 0.00 1.57 0.00 20 1010.5
20260510082051 7 0 0.0 0.0 0.00 1.57 0.00 20 1010.9
20260510081606 7 0 0.0 0.0 0.00 1.57 0.00 20 1010.8
20260510081051 7 0 0.0 0.0 0.00 1.57 0.00 20 1010.9
20260510080551 7 0 0.0 0.0 0.00 1.57 0.00 20 1011.0
20260510080050 7 0 0.0 0.0 0.00 1.57 0.00 20 1011.0
20260510075550 7 0 0.0 0.0 0.00 1.57 0.00 20 1011.0
20260510075050 7 0 0.0 0.0 0.00 1.57 0.00 20 1011.2
20260510074559 7 0 0.0 0.0 0.00 1.57 0.00 20 1011.1
20260510074051 7 0 0.0 0.0 0.00 1.57 0.00 20 1011.2
20260510073550 7 0 0.0 0.0 0.00 1.57 0.00 20 1011.3
20260510073055 7 0 0.0 0.0 0.00 1.57 0.00 20 1011.2
20260510072550 7 0 0.0 0.0 0.00 1.57 0.00 20 1011.1
20260510072052 7 0 0.0 0.0 0.00 1.57 0.00 20 1011.0
20260510071557 7 0 0.0 0.0 0.00 1.57 0.00 20 1010.9
20260510071051 7 0 0.0 0.0 0.00 1.57 0.00 20 1010.9
20260510070551 7 0 0.0 0.0 0.00 1.57 0.00 20 1010.9
20260510070057 6 0 0.0 0.0 0.00 1.57 0.00 20 1011.0
20260510065551 6 0 0.0 0.0 0.00 1.57 0.00 20 1010.9
20260510065051 6 0 0.0 0.0 0.00 1.57 0.00 20 1010.9
20260510064556 6 0 0.0 0.0 0.00 1.57 0.00 20 1010.8
20260510064050 6 0 0.0 0.0 0.00 1.57 0.00 21 1010.7
20260510063551 6 0 0.0 0.0 0.00 1.57 0.00 21 1010.7
20260510063056 6 0 0.0 0.0 0.00 1.57 0.00 21 1010.8
20260510062551 6 0 0.0 0.0 0.00 1.57 0.00 21 1010.7
20260510062050 6 0 0.0 0.0 0.00 1.57 0.00 21 1010.6
20260510061551 6 0 0.0 0.0 0.00 1.57 0.00 21 1010.7
20260510061050 6 0 0.0 0.0 0.00 1.57 0.00 21 1010.7
20260510060551 6 0 0.0 0.0 0.00 1.57 0.00 21 1010.7
20260510060054 6 0 0.0 0.0 0.00 1.57 0.00 21 1010.8
20260510055550 6 0 0.0 0.0 0.00 1.57 0.00 21 1010.8
20260510055050 7 0 0.0 0.0 0.00 1.57 0.00 21 1010.8
20260510054557 7 0 0.0 0.0 0.00 1.57 0.00 21 1011.0
20260510054051 7 0 0.0 0.0 0.00 1.57 0.00 21 1010.9
20260510053550 7 0 0.0 0.0 0.00 1.57 0.00 21 1011.0
20260510053058 7 0 0.0 0.0 0.00 1.57 0.00 21 1011.0
20260510052551 7 0 0.0 0.0 0.00 1.57 0.00 21 1011.1
20260510052051 7 0 0.0 0.0 0.00 1.57 0.00 21 1011.1
20260510051622 7 0 0.0 0.0 0.00 1.57 0.00 21 1010.9
20260510051053 7 0 0.0 0.0 0.00 1.57 0.00 21 1010.9
20260510050550 7 0 0.0 0.0 0.00 1.57 0.00 21 1010.9
20260510050053 7 0 0.0 0.0 0.00 1.57 0.00 20 1010.8
20260510045551 7 0 0.0 0.0 0.00 1.57 0.00 20 1010.8
20260510045050 7 0 0.0 0.0 0.00 1.57 0.00 20 1011.0
20260510044550 7 0 0.0 0.0 0.00 1.57 0.00 20 1011.1
20260510044050 7 0 0.0 0.0 0.00 1.57 0.00 21 1010.9
20260510043550 7 0 0.0 0.0 0.00 1.57 0.00 21 1010.8
20260510043142 7 0 0.0 0.0 0.00 1.57 0.00 21 1011.0
20260510042553 7 0 0.0 0.0 0.00 1.57 0.00 21 1010.9
20260510042052 7 0 0.0 0.0 0.00 1.57 0.00 21 1010.9
20260510041556 7 0 0.0 0.0 0.00 1.57 0.00 21 1010.9
20260510041055 7 0 0.0 0.0 0.00 1.57 0.00 21 1010.9
20260510040551 7 0 0.0 0.0 0.00 1.57 0.00 21 1011.0
20260510040058 7 0 0.0 0.0 0.00 1.57 0.00 21 1011.0
20260510035551 7 0 0.0 0.0 0.00 1.57 1.57 21 1011.0
20260510035053 7 0 0.0 0.0 0.00 1.57 1.57 21 1010.7
20260510034557 7 0 0.0 0.0 0.00 1.57 1.57 21 1010.7
20260510034051 7 0 0.0 0.0 0.00 1.57 1.57 21 1010.7
20260510033552 7 0 0.0 0.0 0.00 1.57 1.57 21 1010.7
20260510033053 7 0 0.0 0.0 0.00 1.57 1.57 21 1010.8
20260510032551 7 0 0.0 0.0 0.00 1.57 1.57 21 1010.9
20260510032054 7 0 0.0 0.0 0.00 1.57 1.57 21 1011.0
20260510031624 7 0 0.0 0.0 0.00 1.57 1.57 21 1010.9
20260510031050 7 0 0.0 0.0 0.00 1.57 1.57 21 1010.9
20260510030551 7 0 0.0 0.0 0.00 1.57 1.57 21 1010.9
20260510030056 7 0 0.0 0.0 0.00 1.57 1.57 21 1010.9
20260510025550 7 0 0.0 0.0 0.00 1.57 1.57 21 1010.9
20260510025050 7 0 0.0 0.0 0.00 1.57 1.57 21 1010.8
20260510024555 7 0 0.0 0.0 0.00 1.57 1.57 21 1010.8
20260510024052 7 0 0.0 0.0 0.00 1.57 1.57 21 1010.9
20260510023550 7 0 0.0 0.0 0.00 1.57 1.57 21 1011.0
20260510023059 7 0 0.0 0.0 0.00 1.57 1.57 21 1011.0
20260510022551 7 0 0.0 0.0 0.00 1.57 1.57 21 1011.0
20260510022051 7 0 0.0 0.0 0.00 1.57 1.57 22 1011.0
20260510021549 7 0 0.0 0.0 0.00 1.57 1.57 22 1010.8
20260510021050 7 0 0.0 0.0 0.00 1.57 1.57 22 1011.0
20260510020551 7 0 0.0 0.0 0.00 1.57 1.57 22 1010.9
20260510020053 7 0 0.0 0.0 0.00 1.57 1.57 23 1010.8
20260510015550 7 0 0.0 0.0 0.00 1.57 1.57 24 1010.9
20260510015050 7 0 0.0 0.0 0.00 1.57 1.57 24 1010.8
20260510014550 7 0 0.0 0.0 0.00 1.57 1.57 24 1011.0
20260510014051 7 0 0.0 0.0 0.00 1.57 1.57 24 1011.1
20260510013551 7 0 0.0 0.0 0.00 1.57 1.57 24 1010.9
20260510013051 7 0 0.0 0.0 0.00 1.57 1.57 24 1011.0
20260510012553 7 0 0.0 0.0 0.00 1.57 1.57 24 1011.0
20260510012050 7 0 0.0 0.0 0.00 1.57 1.57 24 1011.2
20260510011607 7 0 0.0 0.0 0.00 1.57 1.57 24 1011.3
20260510011050 7 0 0.0 0.0 0.00 1.57 1.57 25 1011.2
20260510010554 7 0 0.0 0.0 0.00 1.57 1.57 25 1011.0
20260510010105 7 0 0.0 1.6 0.00 1.57 1.57 25 1010.9
20260510005551 7 0 0.0 1.6 0.00 1.57 1.57 25 1010.8
20260510005051 7 0 0.0 3.2 0.00 1.57 1.57 25 1010.7
20260510004555 7 0 0.0 3.2 0.00 1.57 1.57 25 1010.8
20260510004053 7 0 0.0 3.2 0.00 1.57 1.57 24 1010.5
20260510003551 7 0 0.0 3.2 0.00 1.57 1.57 24 1010.4
20260510003051 7 0 1.6 3.2 0.00 1.57 1.57 24 1010.3
20260510002550 7 111 0.0 3.2 0.00 1.57 1.57 25 1010.3
20260510002050 7 0 0.0 3.2 0.00 1.57 1.57 24 1010.3
20260510001556 7 0 0.0 0.0 0.00 1.57 1.57 24 1010.3
20260510001050 8 0 0.0 8.0 0.00 1.57 1.57 24 1010.0
20260510000550 8 0 0.0 8.0 0.00 1.57 1.57 25 1010.0
20260510000056 8 140 0.0 4.8 0.00 1.57 1.57 25 1009.8
20260509235550 8 0 0.0 3.2 0.00 1.57 1.57 24 1009.8
20260509235050 8 0 0.0 3.2 0.00 1.57 1.57 24 1009.8
20260509234601 8 0 0.0 8.0 0.00 1.57 1.57 24 1009.7
20260509234050 8 0 0.0 8.0 0.00 1.57 1.57 23 1009.6
20260509233549 8 167 0.0 0.0 0.00 1.57 1.57 23 1009.7
20260509233052 8 0 0.0 0.0 0.00 1.57 1.57 22 1009.7
20260509232550 8 0 0.0 0.0 0.00 1.57 1.57 22 1009.8
20260509232050 8 0 0.0 0.0 0.00 1.57 1.57 22 1009.8
20260509231558 8 0 0.0 0.0 0.00 1.57 1.57 22 1009.8
20260509231050 8 0 0.0 0.0 0.00 1.57 1.57 22 1009.9
20260509230550 8 0 0.0 0.0 0.00 1.57 1.57 22 1009.9
20260509230054 8 0 0.0 0.0 0.00 1.57 1.57 21 1009.7
20260509225551 8 0 0.0 0.0 0.00 1.57 1.57 21 1009.8
20260509225054 8 0 0.0 1.6 0.00 1.57 1.57 21 1009.8
20260509224550 8 0 0.0 3.2 0.00 1.57 1.57 21 1009.7
20260509224050 8 0 0.0 3.2 0.00 1.57 1.57 21 1009.8
20260509223550 8 234 0.0 0.0 0.00 1.57 1.57 20 1009.9
20260509223050 8 0 0.0 3.2 0.00 1.57 1.57 20 1009.9
20260509222551 8 0 0.0 4.8 0.00 1.57 1.57 20 1009.8
20260509222050 8 230 1.6 4.8 0.00 1.57 1.57 20 1009.8
20260509221548 8 0 0.0 8.0 0.00 1.57 1.57 20 1009.8
20260509221050 8 0 0.0 8.0 0.00 1.57 1.57 20 1009.8
20260509220549 8 0 0.0 0.0 0.00 1.57 1.57 20 1009.7
20260509220057 8 0 0.0 3.2 0.00 1.57 1.57 19 1009.7
20260509215550 8 0 0.0 4.8 0.00 1.57 1.57 19 1009.8
20260509215055 8 0 0.0 9.7 0.00 1.57 1.57 19 1009.8
20260509214554 8 209 0.0 9.7 0.00 1.57 1.57 19 1009.8
20260509214051 8 199 0.0 6.4 0.00 1.57 1.57 19 1009.9
20260509213550 8 215 1.6 6.4 0.00 1.57 1.57 19 1009.9
20260509213107 8 0 0.0 0.0 0.00 1.57 1.57 19 1010.0
20260509212549 8 0 0.0 0.0 0.00 1.57 1.57 19 1010.0
20260509212050 8 0 0.0 0.0 0.00 1.57 1.57 19 1010.1
20260509211612 8 0 0.0 0.0 0.00 1.57 1.57 19 1010.3
20260509211050 8 0 0.0 0.0 0.03 1.57 1.57 19 1010.3
20260509210551 8 0 0.0 0.0 0.05 1.57 1.57 19 1010.4
20260509210100 8 0 0.0 0.0 0.08 1.57 1.57 19 1010.4
20260509205551 8 0 0.0 0.0 0.10 1.57 1.57 20 1010.3
20260509205051 8 0 0.0 0.0 0.13 1.57 1.57 20 1010.4
20260509204602 8 0 0.0 0.0 0.15 1.57 1.57 20 1010.6
20260509204051 8 0 0.0 0.0 0.18 1.57 1.57 19 1010.7
20260509203551 8 0 0.0 0.0 0.20 1.57 1.57 19 1010.8
20260509203058 8 0 0.0 0.0 0.25 1.57 1.57 20 1010.8
20260509202551 8 0 0.0 0.0 0.28 1.57 1.57 20 1011.0
20260509202050 7 0 0.0 0.0 0.30 1.57 1.57 21 1010.9
20260509201557 7 0 0.0 0.0 0.33 1.57 1.57 21 1010.9
20260509201049 7 0 0.0 0.0 0.36 1.55 1.55 21 1011.0
20260509200550 7 0 0.0 0.0 0.38 1.52 1.52 21 1010.9
20260509195551 7 0 0.0 1.6 0.38 1.47 1.47 21 1011.0
20260509195050 7 0 0.0 1.6 0.36 1.45 1.45 22 1011.1
20260509194601 7 0 0.0 3.2 0.33 1.42 1.42 22 1011.0
20260509194050 7 0 0.0 3.2 0.33 1.40 1.40 22 1011.3
20260509193550 7 0 0.0 6.4 0.30 1.37 1.37 22 1011.2
20260509193053 7 0 1.6 6.4 0.28 1.32 1.32 22 1011.3
20260509192550 7 288 1.6 6.4 0.25 1.30 1.30 22 1011.1
20260509192050 7 0 1.6 6.4 0.23 1.27 1.27 23 1011.0
20260509191551 7 65 0.0 12.9 0.23 1.24 1.24 23 1011.2
20260509191050 7 162 1.6 12.9 0.18 1.19 1.19 22 1011.0
20260509190550 7 90 1.6 6.4 0.13 1.14 1.14 22 1010.9
20260509190100 7 130 1.6 4.8 0.13 1.12 1.12 22 1011.1
20260509185550 7 0 0.0 11.3 0.10 1.09 1.09 22 1011.1
20260509185050 7 0 1.6 11.3 0.10 1.09 1.09 22 1011.0
20260509184554 7 96 1.6 4.8 0.10 1.09 1.09 22 1011.1
20260509184052 7 96 1.6 4.8 0.10 1.07 1.07 22 1011.3
20260509183550 7 96 1.6 4.8 0.10 1.07 1.07 23 1011.4
20260509183057 7 0 1.6 4.8 0.10 1.04 1.04 23 1011.3
20260509182549 7 81 0.0 4.8 0.10 1.04 1.04 23 1011.5
20260509182049 7 77 0.0 4.8 0.10 1.04 1.04 23 1011.4
20260509181607 7 92 0.0 4.8 0.10 1.02 1.02 23 1011.4
20260509181050 6 0 0.0 3.2 0.10 1.02 1.02 23 1011.5
20260509180551 6 119 0.0 4.8 0.13 1.02 1.02 23 1011.5